Regional Weather Roundup
Issued by NWS

Home | Current Version | Previous Version | Graphics & Text | Print | Product List | Glossary On
Versions: 1 2 3 4 5 6 7 8 9 10 11 12 13 14 15 16 17 18 19 20 21 22 23 24 25 26 27 28 29 30 31 32 33 34 35 36 37 38 39 40 41 42 43 44 45 46 47 48 49 50
000
ASUS45 KSLC 201910
RWRUT

UTAH REGIONAL WEATHER ROUNDUP
NATIONAL WEATHER SERVICE SALT LAKE CITY UT
100 PM MDT MON OCT 20 2014

UTZ001>011-023>025-202000-

NORTHERN UTAH

CITY           SKY/WX    TMP DP  RH WIND       PRES   REMARKS
BRIGHAM CITY   SUNNY     67  36  32 CALM      30.05F
HILL AFB       MOSUNNY   71  36  28 S9        30.05F
LOGAN          SUNNY     63  36  36 VRB3      30.05F
OGDEN          SUNNY     72  38  29 NW7       30.03F
PROVO AIRPORT  MOSUNNY   66  43  42 CALM      30.06F
SALT LAKE CITY MOSUNNY   76  36  23 S9        30.01F
VERNAL         SUNNY     63  37  38 CALM      30.16F
WENDOVER       SUNNY     61  37  41 NE8       30.03F VSB 1
HEBER CITY     SUNNY     64  36  34 CALM      30.10F
WEST JORDAN    SUNNY     72  46  40 SE17      30.04F

$$

UTZ012>022-026-027-202000-

SOUTHERN/CENTRAL UTAH

CITY           SKY/WX    TMP DP  RH WIND       PRES   REMARKS
BLANDING       SUNNY     65  40  39 S6        30.26F
BRYCE CANYON   SUNNY     59  38  45 SE9       30.24F
CEDAR CITY     SUNNY     72  39  30 S14       30.09F
DELTA          SUNNY     70  36  29 W3        30.06F
HANKSVILLE       N/A     68  36  30 S5        30.14F
MILFORD        SUNNY     73  39  29 S9        30.06F
MOAB/CYNLANDS  SUNNY     72  39  30 CALM      30.10F
PRICE          SUNNY     65  34  31 SE6       30.18F
ST GEORGE      CLEAR     77  41  27 NW6       30.00F
KANAB            N/A     72  39  30 NE8       30.13F

$$

REGIONAL REPORTS     COLORADO/ARIZONA

CITY           SKY/WX    TMP DP  RH WIND       PRES   REMARKS
CRAIG, CO      SUNNY     69  36  29 VRB7      30.17F
GRAND JUNCTION MOSUNNY   69  44  40 CALM      30.13F
RIFLE          MOSUNNY   63  38  39 SE5       30.16F
MONTROSE       SUNNY     69  38  32 N8        30.19F
CORTEZ         SUNNY     69  41  36 SW8       30.19F
PAGE, AZ       NOT AVBL
GRAND CANYON   SUNNY     65  37  35 E7        30.19F
KINGMAN        SUNNY     78  44  29 NW5       30.01F
FLAGSTAFF      MOSUNNY   62  38  40 SE7       30.20F

$$

REGIONAL REPORTS    NEVADA/IDAHO/WYOMING

CITY           SKY/WX    TMP DP  RH WIND       PRES   REMARKS
LAS VEGAS, NV  MOSUNNY   81  39  22 VRB3      29.90F
ELY            SUNNY     70  32  24 SW26G32   30.08F
ELKO           SUNNY     74  30  19 S17G28    29.97F
POCATELLO, ID  PTSUNNY   72  37  28 NE5       30.00F
BURLEY         PTSUNNY   73  39  29 E7        29.93F
EVANSTON, WY   SUNNY     66  31  27 SW14      30.16F
ROCK SPRINGS   SUNNY     62  32  32 N3        30.17F
KEMMERER       MOSUNNY   63  30  29 S5        30.18F

$$



USA.gov is the U.S. government's official web portal to all federal, state and local government web resources and services.